STARLINK-35185

Last updated on Tue Oct 14 2025 00:02:05 GMT+0000 (Coordinated Universal Time)

1 65608U 25207S 25286.58341435 .00142073 00000+0 35876-2 0 9994 2 65608 97.6036 350.0639 0001885 92.1189 287.5435 15.39259557 5983

Satellite not in orbit

STARLINK-35185